Wind_Speed
9 8 8 7 7 6 6 5 4 3 3 3 3 3 3 3 3 4 4 3 3 3 3 3 4 4 4 5 6 7 6 6 5 5 5 5 4 5 5 4 6 6 6
10 8 8 8 7 6 5 5 4 4 4 3 3 3 3 3 4 3 4 3 3 3 3 3 3 3 3 4 5 7 7 6 6 6 5 4 4 4 4 4 5 6 6
10 8 8 8 8 7 6 5 5 4 4 4 4 4 3 3 3 3 4 3 3 3 3 3 3 3 4 4 4 6 7 7 7 7 6 5 4 4 4 4 5 5 5
9 9 8 8 8 7 7 6 6 5 5 4 4 4 4 4 4 4 4 3 3 3 3 3 4 4 4 4 5 6 6 7 7 7 7 7 6 5 4 5 4 4 4
9 9 9 8 8 8 7 7 7 6 5 4 4 4 4 4 4 4 4 4 5 4 4 4 4 4 4 5 5 6 6 7 7 7 7 7 7 6 5 5 4 3 3
9 10 10 9 9 8 8 7 7 6 6 5 5 5 5 4 4 4 4 5 5 5 5 4 5 4 5 5 5 6 6 7 7 7 6 7 7 6 6 5 5 4 4
9 10 11 10 8 8 8 7 7 6 6 6 5 5 5 5 5 5 5 5 5 6 6 5 5 4 5 6 6 6 7 7 6 6 7 7 6 5 6 5 4 5 5
10 10 10 10 9 8 8 7 6 6 6 6 6 5 5 5 5 6 6 6 6 6 6 6 5 4 4 5 6 7 7 8 7 6 6 7 7 6 6 5 5 4 5
10 10 10 10 10 9 8 8 7 6 6 6 6 5 5 6 6 6 5 5 6 6 7 7 6 5 4 5 6 7 7 7 7 6 6 7 8 7 6 6 5 4 5
10 10 10 10 10 10 9 8 7 6 6 6 6 6 5 6 7 6 5 6 6 7 7 7 6 5 4 4 4 5 5 6 6 6 7 7 8 7 7 7 6 5 6
10 10 10 10 10 10 10 9 8 7 7 6 7 6 7 7 7 7 7 7 7 7 7 7 6 5 4 3 4 4 5 5 6 7 7 7 7 7 7 7 6 6 6
11 11 11 11 11 10 10 10 9 8 7 7 7 7 7 7 7 8 7 7 7 6 6 6 6 5 4 4 4 4 4 4 5 5 6 7 7 6 6 6 7 7 6
12 12 13 12 12 11 11 11 10 9 8 8 8 8 8 8 8 8 7 6 5 4 4 4 5 5 4 4 4 4 3 4 5 5 5 6 6 6 6 7 7 6 6
13 13 13 13 13 12 12 11 11 10 9 9 9 9 9 9 8 7 6 4 3 2 2 3 4 4 4 4 4 4 3 3 5 5 5 5 6 6 6 6 6 6 6
15 15 14 14 14 13 13 13 12 11 11 10 10 10 9 9 8 7 6 5 3 2 2 3 3 3 4 5 4 4 4 3 4 5 5 5 5 6 6 6 6 6 6
16 16 15 14 14 14 14 14 13 12 12 11 11 11 11 10 9 7 6 6 4 3 3 3 4 4 4 4 4 4 4 5 5 5 5 5 5 5 5 5 5 6 7
16 16 15 15 14 14 14 13 13 13 12 12 12 12 11 10 9 7 7 6 6 5 4 4 4 4 4 4 5 5 5 5 5 5 5 6 6 6 6 6 6 7 7
16 17 16 15 15 14 14 14 14 13 13 13 13 13 11 10 10 8 7 7 6 6 5 5 5 5 5 5 5 6 6 6 6 6 5 6 6 6 6 6 7 7 7
16 17 16 16 15 14 15 15 14 14 14 13 13 12 11 11 10 9 7 7 7 7 7 7 7 6 6 7 7 7 7 7 8 8 7 6 6 6 6 6 7 7 7
17 17 16 16 15 15 15 15 14 14 14 13 13 12 12 11 10 9 8 8 8 8 8 8 8 8 7 7 7 8 8 8 8 9 9 8 8 7 7 7 7 8 7
17 17 17 16 16 16 16 16 15 14 14 15 14 13 13 12 12 11 10 9 9 8 8 8 8 8 8 8 8 9 9 9 9 9 10 9 9 9 8 8 8 8 8
18 18 17 17 17 17 17 17 16 15 15 15 14 14 14 13 13 12 12 11 10 9 9 9 9 9 9 9 9 9 10 10 10 10 10 10 10 10 10 10 10 9 10
18 18 18 18 18 19 19 18 17 17 17 16 15 15 15 14 14 13 13 13 12 11 11 10 11 10 9 10 11 11 10 10 10 10 10 10 10 10 11 11 11 11 11
18 19 18 18 19 19 19 19 18 18 17 16 16 16 16 15 15 15 14 13 13 12 12 11 12 11 11 11 12 12 11 11 11 10 10 11 11 11 11 11 12 11 12
19 20 20 19 19 19 19 18 18 17 17 16 17 16 16 16 16 15 15 14 13 13 13 13 13 13 13 12 12 12 12 12 11 11 11 12 12 12 12 12 12 13 13
20 20 20 19 19 19 18 17 17 17 17 17 17 17 17 16 16 15 15 15 14 14 14 14 14 14 14 14 13 13 13 13 12 12 12 13 13 13 13 13 13 13 13
Wind_Direction
354 352 357 358 352 344 336 327 319 317 309 301 298 288 285 284 282 280 271 268 259 256 255 255 251 251 249 239 230 228 225 223 220 215 215 214 214 212 204 205 199 188 187
349 349 354 353 350 346 339 330 321 317 308 297 296 297 292 287 283 282 269 261 241 238 242 248 251 256 257 246 236 235 228 227 223 221 217 216 218 211 201 204 195 194 197
347 349 351 349 349 346 339 329 322 318 307 298 293 294 294 289 285 286 273 267 252 238 233 242 257 265 261 248 241 227 222 228 232 234 230 232 233 223 211 206 193 182 191
346 346 347 348 349 347 341 333 323 312 302 296 294 296 296 289 284 287 283 279 264 245 238 247 259 261 262 255 243 227 227 227 232 238 236 230 234 230 218 209 200 202 203
345 345 347 348 351 350 345 338 329 322 310 299 295 299 298 293 287 286 292 282 275 262 242 246 252 252 255 249 241 230 226 231 236 238 228 222 226 222 210 206 205 207 210
344 345 348 345 350 349 346 341 330 324 318 307 302 300 300 299 295 292 288 282 281 267 266 259 255 255 255 247 246 239 232 232 227 229 220 214 223 215 207 206 218 222 222
341 343 345 346 348 348 346 343 336 326 318 310 304 302 300 304 303 300 291 285 278 273 271 270 261 261 259 253 249 243 240 235 228 222 219 217 221 216 210 214 220 222 227
340 339 342 344 344 343 342 342 338 324 316 313 312 307 303 307 308 304 298 289 280 275 273 270 272 267 258 256 249 247 250 246 234 230 225 220 224 221 219 221 223 227 230
341 336 338 339 339 337 338 338 336 327 319 316 314 308 304 310 311 308 298 287 278 275 272 270 273 269 262 261 254 246 249 248 231 224 225 223 223 220 219 218 219 225 229
338 333 332 334 334 332 333 332 328 322 320 319 319 312 309 313 316 309 300 292 283 276 271 268 268 272 261 263 255 245 246 248 235 230 230 226 225 221 217 215 224 232 238
331 331 327 327 328 329 327 325 323 322 319 316 317 315 313 318 319 309 298 294 292 284 272 259 256 263 255 259 253 248 242 245 238 233 227 221 220 218 217 222 230 240 247
325 325 326 325 323 325 325 321 318 318 314 312 316 320 319 321 316 312 301 298 298 292 276 256 241 235 245 256 247 249 243 245 230 229 223 221 221 220 225 234 240 244 251
322 323 324 327 322 321 321 318 313 314 311 308 313 315 315 318 318 317 309 304 303 294 278 243 222 230 237 246 258 257 243 228 220 225 220 222 224 227 237 243 247 249 250
319 321 321 322 321 319 317 313 310 311 311 309 310 314 310 314 314 317 309 303 297 273 255 219 217 231 238 237 244 253 242 220 213 218 218 225 225 234 244 250 250 247 247
316 317 317 318 316 316 315 311 307 310 307 305 311 314 310 308 305 309 306 302 308 299 267 237 231 241 235 238 234 237 243 230 218 221 225 229 230 238 242 246 249 250 248
312 314 315 314 315 315 310 307 306 307 305 303 308 312 312 308 298 299 301 295 298 299 284 271 259 252 246 238 238 245 241 244 235 223 225 238 246 250 252 251 255 257 256
310 313 313 311 312 312 308 305 304 301 303 303 306 308 311 308 300 287 292 293 296 295 279 271 271 264 257 256 255 256 251 248 247 239 234 233 242 247 253 256 259 260 261
308 313 314 311 311 307 304 304 302 298 299 299 303 306 304 306 301 286 286 285 285 291 287 276 277 272 267 266 261 257 253 251 249 248 249 246 238 245 253 260 263 263 266
306 310 313 311 309 306 303 303 302 295 295 298 300 303 301 303 298 290 280 279 280 285 287 284 279 276 271 268 265 259 255 251 251 251 254 258 249 253 261 262 264 266 267
302 306 310 310 306 302 302 302 301 293 291 291 293 296 298 299 294 290 279 280 281 284 286 284 281 276 270 265 265 263 259 256 256 255 254 259 255 257 262 265 268 272 271
297 301 304 306 304 299 299 299 298 293 288 288 290 291 291 292 291 286 278 277 279 282 281 279 283 280 272 264 263 263 260 257 258 259 257 256 256 259 266 271 272 273 271
294 296 298 301 302 299 296 294 291 289 289 287 287 289 290 289 289 285 280 276 274 276 276 275 278 277 269 263 261 262 259 256 258 260 258 260 260 263 269 271 270 267 266
291 293 293 296 299 298 295 289 287 286 285 283 282 283 284 283 284 284 280 277 275 273 273 274 272 272 268 267 264 263 261 256 257 258 260 260 259 262 267 268 270 268 266
290 293 293 294 296 295 295 289 286 284 285 284 283 282 281 280 281 279 277 275 273 272 273 272 269 268 271 271 268 265 263 259 260 261 262 261 262 266 268 269 270 269 266
290 289 289 289 292 293 294 290 285 284 285 284 283 281 280 279 278 277 274 272 271 270 271 272 268 268 270 273 268 265 261 261 262 263 261 261 263 267 269 273 274 274 273
290 288 286 287 288 289 291 290 287 286 285 283 282 281 280 278 275 276 274 270 270 270 269 270 270 270 270 270 272 270 267 264 261 263 266 265 267 271 272 274 273 273 273
Height
5886 5884 5883 5881 5880 5879 5878 5877 5876 5876 5875 5874 5874 5873 5872 5872 5872 5871 5871 5870 5870 5870 5870 5870 5870 5870 5870 5870 5871 5872 5873 5874 5874 5875 5876 5876 5877 5878 5879 5880 5881 5882 5883
5886 5884 5883 5882 5880 5879 5878 5877 5876 5875 5875 5874 5873 5873 5872 5871 5871 5870 5870 5870 5869 5869 5869 5869 5869 5869 5870 5870 5870 5871 5872 5873 5874 5874 5875 5876 5877 5878 5879 5880 5880 5881 5883
5885 5884 5883 5882 5880 5879 5878 5877 5876 5875 5874 5873 5873 5872 5871 5871 5871 5870 5869 5869 5869 5869 5869 5869 5869 5869 5869 5869 5870 5870 5871 5872 5873 5874 5874 5875 5876 5877 5878 5880 5880 5881 5882
5885 5884 5883 5881 5880 5879 5878 5877 5876 5875 5874 5873 5872 5872 5871 5870 5870 5869 5869 5869 5869 5868 5868 5868 5868 5868 5869 5869 5870 5870 5871 5872 5872 5872 5872 5874 5875 5877 5878 5879 5880 5880 5882
5885 5884 5883 5881 5880 5879 5878 5877 5875 5875 5874 5873 5872 5871 5870 5870 5869 5869 5868 5868 5868 5868 5868 5867 5867 5868 5868 5868 5869 5869 5870 5870 5870 5870 5870 5872 5874 5876 5877 5879 5879 5881 5881
5885 5884 5883 5881 5880 5878 5877 5876 5875 5874 5873 5872 5872 5871 5870 5869 5868 5868 5868 5868 5867 5867 5867 5867 5867 5867 5867 5868 5868 5869 5869 5870 5869 5869 5870 5872 5874 5875 5877 5878 5879 5880 5881
5885 5883 5882 5881 5879 5878 5877 5876 5875 5874 5873 5872 5871 5870 5869 5869 5868 5867 5867 5866 5866 5866 5866 5866 5865 5866 5866 5867 5867 5868 5868 5869 5869 5870 5871 5872 5874 5875 5876 5878 5879 5880 5881
5885 5883 5882 5880 5879 5878 5877 5875 5874 5873 5873 5872 5871 5870 5869 5868 5867 5866 5866 5865 5865 5865 5865 5865 5864 5864 5865 5865 5866 5867 5867 5868 5869 5870 5871 5872 5874 5875 5876 5877 5878 5879 5880
5884 5882 5881 5880 5879 5877 5876 5875 5874 5873 5872 5871 5870 5870 5869 5868 5867 5866 5865 5864 5863 5863 5863 5863 5863 5863 5864 5864 5864 5865 5866 5867 5868 5870 5871 5872 5873 5875 5876 5877 5878 5879 5880
5883 5882 5881 5879 5878 5877 5876 5874 5873 5872 5872 5871 5870 5869 5868 5867 5866 5865 5864 5863 5862 5861 5861 5861 5862 5862 5863 5863 5863 5864 5865 5866 5867 5868 5870 5871 5872 5874 5875 5876 5878 5878 5879
5883 5881 5880 5879 5878 5877 5875 5874 5873 5872 5871 5870 5869 5868 5867 5866 5865 5864 5862 5861 5860 5858 5857 5858 5860 5861 5861 5862 5862 5863 5864 5865 5866 5867 5868 5869 5871 5873 5874 5876 5877 5878 5878
5882 5881 5879 5878 5877 5876 5875 5873 5872 5871 5870 5869 5869 5868 5866 5865 5864 5862 5860 5859 5857 5855 5854 5855 5858 5860 5861 5861 5861 5862 5863 5864 5866 5866 5867 5868 5870 5872 5873 5875 5876 5876 5877
5881 5880 5878 5877 5876 5875 5874 5873 5872 5871 5870 5869 5867 5866 5865 5864 5862 5861 5859 5857 5855 5854 5853 5854 5857 5859 5860 5860 5860 5861 5862 5863 5865 5866 5867 5868 5869 5871 5872 5874 5875 5875 5876
5880 5879 5878 5876 5875 5874 5873 5872 5871 5870 5869 5868 5867 5866 5864 5863 5862 5860 5858 5857 5856 5855 5854 5855 5857 5859 5859 5860 5861 5861 5863 5864 5865 5866 5867 5868 5869 5870 5871 5872 5874 5874 5875
5879 5878 5877 5875 5874 5873 5872 5871 5870 5869 5868 5867 5866 5865 5863 5862 5861 5860 5859 5858 5857 5857 5857 5857 5858 5859 5860 5860 5861 5862 5863 5864 5865 5866 5867 5867 5868 5869 5870 5872 5873 5873 5874
5878 5876 5875 5874 5872 5871 5870 5869 5868 5867 5866 5866 5865 5864 5862 5861 5860 5860 5859 5858 5858 5858 5858 5858 5858 5858 5859 5860 5861 5862 5863 5864 5864 5865 5866 5867 5868 5868 5870 5871 5872 5872 5873
5876 5874 5873 5872 5871 5869 5868 5867 5866 5865 5864 5864 5864 5863 5861 5860 5859 5859 5859 5858 5858 5858 5858 5858 5858 5859 5859 5860 5861 5862 5862 5863 5864 5865 5865 5866 5867 5868 5869 5870 5870 5871 5872
5874 5872 5871 5870 5868 5867 5866 5865 5865 5864 5863 5863 5862 5861 5860 5859 5858 5858 5858 5858 5858 5858 5858 5858 5858 5859 5859 5860 5860 5861 5862 5862 5863 5864 5865 5866 5866 5867 5868 5868 5869 5870 5870
5872 5870 5869 5868 5867 5865 5864 5863 5862 5862 5861 5861 5860 5860 5859 5858 5857 5857 5857 5857 5857 5857 5857 5857 5857 5858 5858 5859 5859 5860 5861 5861 5862 5863 5864 5865 5865 5866 5866 5867 5867 5868 5868
5869 5868 5867 5866 5864 5863 5862 5861 5860 5859 5859 5859 5858 5858 5857 5856 5856 5856 5855 5855 5856 5856 5856 5856 5856 5857 5857 5857 5858 5858 5859 5860 5861 5862 5862 5863 5864 5865 5865 5866 5866 5866 5866
5866 5865 5864 5863 5862 5861 5860 5858 5858 5857 5857 5856 5856 5856 5855 5854 5854 5854 5854 5854 5854 5855 5855 5855 5855 5855 5855 5856 5856 5857 5858 5859 5859 5860 5861 5862 5862 5863 5863 5864 5864 5864 5864
5863 5862 5861 5860 5859 5858 5857 5856 5855 5855 5854 5854 5853 5853 5852 5852 5852 5852 5852 5852 5853 5853 5853 5853 5854 5854 5854 5854 5855 5855 5856 5857 5857 5858 5859 5860 5861 5861 5862 5862 5862 5862 5862
5859 5859 5858 5857 5855 5854 5853 5852 5852 5851 5851 5851 5850 5850 5850 5849 5849 5849 5849 5850 5850 5851 5851 5851 5852 5852 5852 5853 5853 5854 5854 5855 5855 5856 5857 5858 5858 5859 5859 5860 5860 5860 5860
5856 5855 5854 5853 5852 5850 5849 5848 5848 5847 5847 5847 5847 5846 5846 5846 5846 5846 5847 5847 5847 5848 5848 5848 5849 5850 5850 5851 5851 5851 5852 5852 5852 5853 5854 5855 5856 5856 5857 5857 5857 5857 5857
5852 5851 5850 5849 5848 5847 5845 5844 5844 5843 5843 5843 5843 5843 5843 5843 5843 5843 5844 5844 5844 5845 5845 5846 5846 5847 5847 5848 5848 5848 5848 5849 5850 5851 5852 5852 5853 5853 5854 5854 5854 5854 5854
5848 5847 5846 5845 5844 5843 5841 5840 5840 5839 5839 5839 5839 5839 5839 5839 5839 5840 5840 5840 5841 5842 5842 5843 5843 5844 5844 5845 5845 5845 5845 5846 5847 5848 5849 5849 5850 5850 5850 5850 5851 5851 5851